sat.trackr.live / text

‹ back to catalog

STARLINK-30313

NORAD 57676 · 2023-124P

PAYLOAD ACTIVE UNKNOWN

§ Identity

Operator
Country
US
Launch date
2023-08-22
Launch site
AFWTR
Launch vehicle
Mass (kg)
RCS (m²)

Purposes: comms

External: N2YO · Heavens-Above · Gunter

§ Orbital elements

Epoch: 2026-09-20T13:42:50.137632Z

Period
93.85 min
Inclination
53.1621°
Eccentricity
0.0000938
Mean motion
15.34400542 rev/d
Perigee alt
462.1 km
Apogee alt
463.3 km
Semi-major
6,840.8 km
B*
3.8887e-5
RAAN
21.0530°
Arg perigee
77.9469°
Mean anomaly
282.1639°
Rev number
17,341

§ Raw data

STARLINK-303131 57676U 23124P   26263.57141363  .00000938  00000+0  38887-4 0  99992 57676  53.1621  21.0530 0000938  77.9469 282.1639 15.34400542173419

JSON: /api/v1/satellites/57676 · /tle

For live sub-satellite position, see the globe view (requires WebGL).

§ Visibility from observer

Set your observer location to see the next 7 days of passes ≥ 10°. The values pass through the URL so the page stays shareable.

No JS? Fill the form by hand. The geolocation button needs JavaScript.